Flag for Australia Weather past 2 weeks in Toowoomba, Queensland, Australia

Now
77 °F

Mild.


Feels Like: 78 °F
Forecast: 65 / 83 °F
Wind: 10 mph from Northeast

Location: Oakey Aerodrome

Current Time: Mar 1, 2015 at 10:50:30 AM

Latest Report: Mar 1, 2015 at 9:00 AM


Visibility: N/A

Pressure: 29.86 "Hg

Humidity: 61%

Dew point: 62 °F

Location of ToowoombaLocation

Historic Weather in Toowoomba — Graph

°F

Toowoomba temperature yesterday

Maximum temperature yesterday: 86 °F (at 3:00 PM)
Minimum temperature yesterday: 66 °F (at 6:00 AM)
Average temperature yesterday: 75 °F

Past Weeks' High & Low Weather Summary

 TemperatureHumidityPressure
High87 °F (Feb 22, 3:00 PM)96% (Feb 27, 6:00 AM)30.13 "Hg (Feb 27, 6:00 AM)
Low59 °F (Feb 15, 6:00 AM)30% (Feb 16, 4:00 PM)29.67 "Hg (Feb 21, 3:00 PM)
Average74 °F70%29.87 "Hg
* Reported Feb 14 9:00 AM — Mar 1 9:00 AM, Toowoomba, Weather by CustomWeather, © 2015

Note: Actual official high and low records may vary slightly from our data, if they occured in-between our weather recording intervals... More about our weather records

Advertising

Toowoomba weather history for previous 24 hours

 ConditionsComfort  
Time TempWeatherWind HumidityBarometerVisibility
9:00 AM
Sun, Mar 1
77 °FMild.10 mph61%29.86 "HgN/A
7:00 AM70 °FMild.5 mph84%29.83 "HgN/A
6:00 AM67 °FScattered clouds.8 mph91%29.82 "HgN/A
4:00 AM67 °FMild.7 mph90%29.81 "HgN/A
3:00 AM67 °FMild.8 mph90%29.80 "HgN/A
1:00 AM69 °FMild.13 mph87%29.80 "HgN/A
12:00 AM70 °FMild.12 mph85%29.84 "HgN/A
10:00 PM
Sat, Feb 28
72 °FMild.16 mph80%29.83 "HgN/A
9:00 PM73 °FMild.14 mph81%29.82 "HgN/A
7:00 PM77 °FMild.12 mph73%29.78 "HgN/A
6:00 PM80 °FWarm.12 mph61%29.76 "HgN/A
4:00 PM83 °FWarm.9 mph53%29.74 "HgN/A
3:00 PM86 °FScattered clouds.9 mph48%29.74 "HgN/A
1:00 PM84 °FWarm.8 mph53%29.78 "HgN/A
12:00 PM84 °FPartly sunny.6 mph53%29.80 "HgN/A
10:00 AM78 °FWarm.9 mph62%29.84 "HgN/A
Weather by CustomWeather, © 2015

See weather overviewHow to use our weather pages